Other Public Products
Issued by NWS Grand Forks, ND

Home | Current Version | Previous Version | Text Only | Print | Product List | Glossary Off
Versions: 1 2 3 4 5 6 7 8 9 10 11 12 13 14 15 16 17 18 19 20 21 22 23 24 25 26 27 28 29 30 31 32 33 34 35 36 37 38 39 40 41 42 43 44 45 46 47 48 49 50

000
FPUS83 KFGF 271810
OPUFGF
PRAIRIE TO PINES WEATHER ROUNDUP
NATIONAL WEATHER SERVICE EASTERN NORTH DAKOTA/GRAND FORKS ND
100 PM CDT TUE SEP 27 2016

 **SATELLITE DATA USED TO AUGMENT SKY COVER AT AUTOMATED STATIONS**
 *****  WEATHER ACROSS EASTERN NORTH DAKOTA  *****

CITY           SKY/WX    TMP DP  RH WIND       PRES   REMARKS
GRAND FORKS    MOSUNNY   56  43  61 NW16G25   29.90F
6HR MIN TEMP:  41; 6HR MAX TEMP:  57;

GRAND FORKS AF SUNNY     57  43  59 N16       29.89F
GRAND CITY NWS NOT AVBL
BUXTON         NOT AVBL
DEVILS LAKE    SUNNY     59  37  44 NW15      29.94F
6HR MIN TEMP:  36; 6HR MAX TEMP:  59;

FARGO          SUNNY     61  40  45 NW20      29.88F
6HR MIN TEMP:  40; 6HR MAX TEMP:  62;

WAHPETON ARPT  CLEAR     61  32  33 NW16G26   29.87F
$$

 *****  WEATHER ACROSS CENTRAL AND WESTERN NORTH DAKOTA  *****

CITY           SKY/WX    TMP DP  RH WIND       PRES   REMARKS
JAMESTOWN      SUNNY     63  30  28 N17G25    29.93F
6HR MIN TEMP:  40; 6HR MAX TEMP:  63;

BISMARCK       SUNNY     66  40  38 NW5       29.98F
6HR MIN TEMP:  35; 6HR MAX TEMP:  66;

MINOT          SUNNY     65  38  36 VRB6      29.96F
6HR MIN TEMP:  40; 6HR MAX TEMP:  65;

MINOT AFB      SUNNY     64  38  37 N3        29.96F
6HR MIN TEMP:  36; 6HR MAX TEMP:  64;

GARRISON         N/A     67  40  37 VRB3      29.97F
6HR MIN TEMP:  36; 6HR MAX TEMP:  67;

WILLISTON      SUNNY     67  49  52 VRB5      29.96F
6HR MIN TEMP:  37; 6HR MAX TEMP:  67;

DICKINSON      SUNNY     70  45  40 W7        29.97F
6HR MIN TEMP:  39; 6HR MAX TEMP:  70;

HETTINGER      SUNNY     74  47  38 W7        30.00F
6HR MIN TEMP:  36; 6HR MAX TEMP:  74;

$$

 *****  OTHER OBSERVATIONS NORTHEAST NORTH DAKOTA  *****

CITY           SKY/WX    TMP DP  RH WIND       PRES   REMARKS
WALHALLA       FAIR      54  50  87 N15G23    29.92F
LANGDON        FAIR      57  43  58 NW14      29.93S
CAVALIER       MOCLDY    54  43  66 NW17G23   29.92S
GRAFTON        FAIR      54  45  71 NW17G25   29.93R
CANDO          FAIR      63  32  31 NW16      29.96F
FORT TOTTEN      N/A     61  38  43 NW7       29.95S
ROLLA          FAIR      59  28  31 NW15G22   29.96F
RUGBY          FAIR      63  36  36 NW13      29.96F
 ***** THE ABOVE OBSERVATIONS ARE NON NWS ARE NOT QUALITY
        CONTROLLED AND MAY MIS-REPORT RAIN FOR SNOW...
$$

 *****  OTHER OBSERVATIONS SOUTHEAST NORTH DAKOTA *****

CITY           SKY/WX    TMP DP  RH WIND       PRES   REMARKS
COOPERSTOWN    FAIR      61  34  36 NW18      29.92F
VALLEY CITY    FAIR      61  36  39 NW17G23   29.93F
OAKES          NOT AVBL
GWINNER        FAIR      64  36  34 NW14      29.92F
SHEYENNE NWR     N/A     64  33  31 N14       29.95S
BUFFALO        NOT AVBL
WYNDMERE       NOT AVBL
 ***** THE ABOVE OBSERVATIONS ARE NON NWS ARE NOT QUALITY
       CONTROLLED AND MAY MIS-REPORT RAIN FOR SNOW...
$$

  *****  WEATHER ACROSS NORTHERN MINNESOTA  *****

CITY           SKY/WX    TMP DP  RH WIND       PRES   REMARKS
FLAG ISLAND    CLOUDY    46  43  87 N16       29.82R
WARROAD        CLOUDY    46  43  87 N12       29.85R
ROSEAU         CLOUDY    52  45  76 N8        29.85R
HALLOCK        CLOUDY    54  45  71 NW17G23   29.89S
THF RVR FALLS  CLOUDY    51  43  74 NW18G26   29.88R
6HR MIN TEMP:  43; 6HR MAX TEMP:  51;

HALSTAD          N/A     57  43  59 N15         N/A
FOSSTON        CLOUDY    48  41  76 NW17G25   29.86S
BAUDETTE       LGT RAIN  48  45  89 N12       29.80S FOG
6HR MIN TEMP:  47; 6HR MAX TEMP:  50; 6HR PCP:  0.10;

WASKISH        LGT RAIN  46  45  93 NW10G17   29.80S
CROOKSTON      PTSUNNY   54  45  71 N17G25    29.89S
$$
  *****  WEATHER ACROSS CENTRAL AND WEST MINNESOTA  *****

CITY           SKY/WX    TMP DP  RH WIND       PRES   REMARKS
BEMIDJI        DRIZZLE   47  43  85 NW13      29.81S
PARK RAPIDS    CLOUDY    51  40  65 NW21      29.82S
6HR MIN TEMP:  44; 6HR MAX TEMP:  52;

WADENA         CLOUDY    54  41  62 NW17G28   29.83F
DETROIT LAKES  PTSUNNY   54  41  62 NW21      29.87F
MOORHEAD       SUNNY     61  39  44 NW17      29.88F
FERGUS FALLS   SUNNY     57  41  54 NW20G28   29.88F
ELBOW LAKE     FAIR      58  38  48 W22       29.86F
MORRIS MN      SUNNY     64  34  32 NW21G32   29.86F
STAPLES        CLOUDY    52  39  62 NW15G22   29.82S
WHEATON        SUNNY     64  37  36 W17G23    29.89F HAZE
$$
  *****  WEATHER ELSEWHERE ACROSS MINNESOTA  *****

CITY           SKY/WX    TMP DP  RH WIND       PRES   REMARKS
DULUTH         LGT RAIN  50  45  83 NW16G25   29.69S
6HR MIN TEMP:  48; 6HR MAX TEMP:  51; 6HR PCP:  0.01;

INTRNTL FALLS  LGT RAIN  47  43  86 N13       29.76S
6HR MIN TEMP:  46; 6HR MAX TEMP:  47; 6HR PCP:  0.14;

ELY            LGT RAIN  46  45  93 NW7G20    29.69R
CLOQUET        LGT RAIN  48  45  87 NW12      29.72S
BRAINERD       CLOUDY    51  42  71 NW7G23    29.80S
6HR MIN TEMP:  46; 6HR MAX TEMP:  51;

HIBBING        LGT RAIN  46  43  89 NW16G25   29.73R
6HR MIN TEMP:  46; 6HR MAX TEMP:  48; 6HR PCP:  0.03;

ALEXANDRIA     SUNNY     57  39  51 NW22G30   29.85F
6HR MIN TEMP:  41; 6HR MAX TEMP:  59;

SAINT CLOUD    CLOUDY    55  43  63 NW17G26   29.80F
6HR MIN TEMP:  45; 6HR MAX TEMP:  56;

MINNEAPOLIS    CLOUDY    60  43  53 NW14      29.79F
6HR MIN TEMP:  49; 6HR MAX TEMP:  60;

$$

  *****  WEATHER ACROSS SOUTH DAKOTA  *****

CITY           SKY/WX    TMP DP  RH WIND       PRES   REMARKS
SIOUX FALLS    SUNNY     70  41  34 NW15G24   29.93F
6HR MIN TEMP:  44; 6HR MAX TEMP:  71;

BROOKINGS      SUNNY     66  39  37 NW16      29.91
WATERTOWN      SUNNY     65  37  35 NW17G24   29.91F
6HR MIN TEMP:  44; 6HR MAX TEMP:  65;

HURON          SUNNY     71  41  33 NW9       29.93F
6HR MIN TEMP:  38; 6HR MAX TEMP:  72;

SISSETON         N/A     66  32  28 N20G28    29.89F
ABERDEEN       SUNNY     71  36  27 NW16      29.94F
6HR MIN TEMP:  38; 6HR MAX TEMP:  71;

MITCHELL       SUNNY     74  40  29 NW14G24   29.95F
PIERRE         SUNNY     73  44  35 W8        29.95F
6HR MIN TEMP:  43; 6HR MAX TEMP:  74;

MOBRIDGE       SUNNY     70  42  36 NW7       29.95F
RAPID CITY     SUNNY     79  42  26 VRB7      30.04F
6HR MIN TEMP:  40; 6HR MAX TEMP:  79;

$$

  *****  SOME WEATHER IN NEARBY STATES *****

CITY           SKY/WX    TMP DP  RH WIND       PRES   REMARKS
GLASGOW MT     SUNNY     69  49  48 W5        29.95F
6HR MIN TEMP:  44; 6HR MAX TEMP:  69;

GREAT FALLS MT SUNNY     78  41  26 SW21G28   30.03F
6HR MIN TEMP:  57; 6HR MAX TEMP:  79;

CHEYENNE WY    SUNNY     76  25  15 CALM      30.24F
6HR MIN TEMP:  40; 6HR MAX TEMP:  77;

SCOTTSBLUFF NE SUNNY     73  44  35 W8        30.13F
6HR MIN TEMP:  39; 6HR MAX TEMP:  73;

OMAHA NE       SUNNY     75  42  30 NW10      29.96F
6HR MIN TEMP:  51; 6HR MAX TEMP:  75;

DES MOINES IA  MOSUNNY   73  40  30 W16       29.91F
6HR MIN TEMP:  50; 6HR MAX TEMP:  73;

DAVENPORT IA   SUNNY     69  32  25 W22G31    29.85F
6HR MIN TEMP:  47; 6HR MAX TEMP:  69;

CHICAGO IL     MOSUNNY   67  31  26 W22G36    29.76F
6HR MIN TEMP:  51; 6HR MAX TEMP:  68;

EAU CLAIRE WI  CLOUDY    54  44  69 W13G23    29.74S
6HR MIN TEMP:  50; 6HR MAX TEMP:  56;

LA CROSSE WI   PTSUNNY   66  44  45 NW21      29.76F
6HR MIN TEMP:  52; 6HR MAX TEMP:  66;

$$

  *****  SOME NATIONAL WEATHER *****

CITY           SKY/WX    TMP DP  RH WIND       PRES   REMARKS
LA GUARDIA NY  PTSUNNY   73  57  57 N5        29.89F
6HR MIN TEMP:  67; 6HR MAX TEMP:  74;                              C1F1C2F2C3F3C4F4C5F5C6F6C7F7C8F8C9F9CaFaCbFbCcFcCdFdCe!



USA.gov is the U.S. government's official web portal to all federal, state and local government web resources and services.